Location: Martley
(52.2333°N, 2.3667°W)
Time: 04:36:36
(UTC+00:00)

Meteor 2-4 Rocket - Pass Details

Date: 11 December 2019
Orbit: 798 x 909 km, 81.2° (Epoch: 17 January)

Event Time Altitude Azimuth Distance (km) Brightness Sun altitude
Exits shadow 05:57:03 - 346° (NNW) 2,869 6.2 -18.8°
Reaches altitude 10° 05:58:05 10° 346° (NNW) 2,464 5.9 -18.6°
Maximum altitude 06:03:40 88° 259° (WSW) 829 3.6 -17.8°
Drops below altitude 10° 06:09:04 10° 170° (S) 2,386 6.4 -17.0°
Sets 06:11:25 0° 170° (S) 3,304 7.1 -16.7°
